Location: Stanford
(52.2833°N, 2.4333°W)
Time: 03:17:02
(UTC+00:00)

H-2A R/B - Pass Details

Date: 22 January 2021
Orbit: 577 x 655 km, 98.5° (Epoch: 24 February)

Event Time Altitude Azimuth Distance (km) Brightness Sun altitude
Rises 18:59:05 0° 7° (N) 2,982 5.4 -21.0°
Reaches altitude 10° 19:01:37 10° 355° (N) 2,057 4.7 -21.4°
Maximum altitude 19:05:16 25° 300° (WNW) 1,294 4.2 -21.9°
Drops below altitude 10° 19:08:50 10° 245° (WSW) 2,012 5.6 -22.5°
Sets 19:11:17 0° 233° (SW) 2,900 6.4 -22.8°
